| time (UTC) | temp F | wind direction | speed MPH | gust MPH | rain 1hr in | rain 24hr in | rain mn in | humidity % | barometer mb |
| 20260508151504 | 70 | 196 | 7.0 | 17.0 | 0.00 | 0.00 | 0.00 | 57 | 1010.7 |
| 20260508150001 | 69 | 259 | 6.0 | 14.0 | 0.00 | 0.00 | 0.00 | 60 | 1010.9 |
| 20260508144559 | 69 | 205 | 6.0 | 15.0 | 0.00 | 0.00 | 0.00 | 61 | 1010.9 |
| 20260508143108 | 68 | 187 | 4.0 | 12.0 | 0.00 | 0.00 | 0.00 | 61 | 1010.9 |
| 20260508141555 | 67 | 283 | 5.0 | 12.0 | 0.00 | 0.00 | 0.00 | 63 | 1010.9 |
| 20260508140101 | 65 | 244 | 7.0 | 15.0 | 0.00 | 0.00 | 0.00 | 64 | 1011.0 |
| 20260508134548 | 64 | 170 | 6.0 | 12.0 | 0.00 | 0.00 | 0.00 | 66 | 1011.3 |
| 20260508133045 | 63 | 219 | 6.0 | 11.0 | 0.00 | 0.00 | 0.00 | 68 | 1011.3 |
| 20260508131545 | 61 | 262 | 5.0 | 12.0 | 0.00 | 0.00 | 0.00 | 72 | 1011.4 |
| 20260508130043 | 60 | 139 | 2.0 | 8.0 | 0.00 | 0.00 | 0.00 | 75 | 1011.5 |
| 20260508124542 | 58 | 18 | 4.0 | 10.0 | 0.00 | 0.00 | 0.00 | 77 | 1011.4 |
| 20260508123042 | 57 | 21 | 4.0 | 11.0 | 0.00 | 0.00 | 0.00 | 78 | 1011.4 |
| 20260508121543 | 56 | 22 | 4.0 | 8.0 | 0.00 | 0.00 | 0.00 | 79 | 1011.4 |
| 20260508120043 | 56 | 22 | 3.0 | 8.0 | 0.00 | 0.00 | 0.00 | 80 | 1011.4 |
| 20260508114545 | 56 | 24 | 3.0 | 6.0 | 0.00 | 0.00 | 0.00 | 80 | 1011.4 |
| 20260508113041 | 56 | 24 | 2.0 | 8.0 | 0.00 | 0.00 | 0.00 | 80 | 1011.3 |
| 20260508111551 | 56 | 26 | 3.0 | 8.0 | 0.00 | 0.00 | 0.00 | 80 | 1011.2 |
| 20260508110035 | 56 | 24 | 2.0 | 9.0 | 0.00 | 0.00 | 0.00 | 79 | 1011.2 |
| 20260508104536 | 56 | 27 | 3.0 | 8.0 | 0.00 | 0.00 | 0.00 | 79 | 1011.2 |
| 20260508103036 | 56 | 22 | 2.0 | 6.0 | 0.00 | 0.00 | 0.00 | 78 | 1011.1 |
| 20260508101532 | 57 | 27 | 2.0 | 9.0 | 0.00 | 0.00 | 0.00 | 78 | 1010.9 |
| 20260508100031 | 57 | 360 | 2.0 | 11.0 | 0.00 | 0.00 | 0.00 | 77 | 1011.0 |
| 20260508094529 | 57 | 24 | 3.0 | 9.0 | 0.00 | 0.00 | 0.00 | 77 | 1010.9 |
| 20260508093028 | 57 | 20 | 4.0 | 8.0 | 0.00 | 0.00 | 0.00 | 76 | 1010.9 |
| 20260508091527 | 58 | 19 | 3.0 | 6.0 | 0.00 | 0.00 | 0.00 | 76 | 1011.0 |
| 20260508090025 | 58 | 16 | 3.0 | 10.0 | 0.00 | 0.00 | 0.00 | 75 | 1010.9 |
| 20260508084522 | 58 | 23 | 3.0 | 6.0 | 0.00 | 0.00 | 0.00 | 74 | 1011.0 |
| 20260508083022 | 58 | 22 | 2.0 | 9.0 | 0.00 | 0.00 | 0.00 | 73 | 1010.9 |
| 20260508081520 | 58 | 19 | 3.0 | 8.0 | 0.00 | 0.00 | 0.00 | 73 | 1011.1 |
| 20260508080017 | 59 | 195 | 3.0 | 8.0 | 0.00 | 0.00 | 0.00 | 72 | 1011.3 |
| 20260508074514 | 59 | 178 | 2.0 | 8.0 | 0.00 | 0.00 | 0.00 | 70 | 1011.5 |
| 20260508073011 | 60 | 150 | 4.0 | 10.0 | 0.00 | 0.00 | 0.00 | 69 | 1011.7 |
| 20260508071507 | 60 | 166 | 3.0 | 7.0 | 0.00 | 0.00 | 0.00 | 68 | 1012.0 |
| 20260508070005 | 61 | 182 | 4.0 | 9.0 | 0.00 | 0.00 | 0.00 | 66 | 1012.0 |
| 20260508064502 | 61 | 244 | 4.0 | 10.0 | 0.00 | 0.00 | 0.00 | 63 | 1012.2 |
| 20260508063104 | 62 | 161 | 3.0 | 12.0 | 0.00 | 0.00 | 0.00 | 61 | 1012.4 |
| 20260508061601 | 62 | 154 | 4.0 | 11.0 | 0.00 | 0.00 | 0.00 | 58 | 1012.4 |
| 20260508060053 | 62 | 163 | 4.0 | 10.0 | 0.00 | 0.00 | 0.00 | 56 | 1012.5 |
| 20260508054552 | 63 | 175 | 4.0 | 11.0 | 0.00 | 0.00 | 0.00 | 56 | 1012.5 |
| 20260508053100 | 63 | 173 | 4.0 | 10.0 | 0.00 | 0.00 | 0.00 | 55 | 1012.5 |
| 20260508051552 | 63 | 171 | 4.0 | 8.0 | 0.00 | 0.00 | 0.00 | 54 | 1012.4 |
| 20260508050046 | 63 | 184 | 4.0 | 8.0 | 0.00 | 0.00 | 0.00 | 54 | 1012.5 |
| 20260508044544 | 63 | 176 | 4.0 | 9.0 | 0.00 | 0.00 | 0.00 | 54 | 1012.6 |
| 20260508043050 | 63 | 177 | 3.0 | 5.0 | 0.00 | 0.00 | 0.00 | 54 | 1012.8 |
| 20260508041544 | 63 | 163 | 1.0 | 6.0 | 0.00 | 0.00 | 0.00 | 53 | 1012.9 |
| 20260508040044 | 64 | 170 | 2.0 | 7.0 | 0.00 | 0.00 | 0.00 | 53 | 1013.0 |
| 20260508034548 | 64 | 176 | 3.0 | 6.0 | 0.00 | 0.00 | 0.00 | 52 | 1013.0 |
| 20260508033042 | 64 | 188 | 1.0 | 7.0 | 0.00 | 0.00 | 0.00 | 51 | 1013.0 |
| 20260508031541 | 65 | 165 | 2.0 | 5.0 | 0.00 | 0.00 | 0.00 | 49 | 1013.0 |
| 20260508030041 | 65 | 155 | 1.0 | 7.0 | 0.00 | 0.00 | 0.00 | 48 | 1013.0 |
| 20260508024544 | 66 | 167 | 2.0 | 6.0 | 0.00 | 0.00 | 0.00 | 46 | 1012.8 |
| 20260508023039 | 66 | 165 | 1.0 | 6.0 | 0.00 | 0.00 | 0.00 | 46 | 1012.6 |
| 20260508021539 | 67 | 167 | 1.0 | 5.0 | 0.00 | 0.00 | 0.00 | 44 | 1012.6 |
| 20260508020040 | 68 | 172 | 2.0 | 5.0 | 0.00 | 0.00 | 0.00 | 42 | 1012.6 |
| 20260508014538 | 69 | 176 | 0.0 | 4.0 | 0.00 | 0.00 | 0.00 | 39 | 1012.5 |
| 20260508013038 | 71 | 175 | 2.0 | 5.0 | 0.00 | 0.00 | 0.00 | 37 | 1012.4 |
| 20260508011537 | 72 | 176 | 2.0 | 6.0 | 0.00 | 0.00 | 0.00 | 36 | 1012.3 |
| 20260508010036 | 73 | 167 | 2.0 | 7.0 | 0.00 | 0.00 | 0.00 | 35 | 1012.1 |
| 20260508004538 | 74 | 162 | 2.0 | 6.0 | 0.00 | 0.00 | 0.00 | 34 | 1012.1 |
| 20260508003035 | 76 | 165 | 1.0 | 8.0 | 0.00 | 0.00 | 0.00 | 31 | 1012.0 |
| 20260508001535 | 76 | 167 | 2.0 | 6.0 | 0.00 | 0.00 | 0.00 | 29 | 1011.9 |
| 20260508000034 | 77 | 248 | 1.0 | 6.0 | 0.00 | 0.00 | 0.00 | 30 | 1012.0 |
| 20260507234539 | 77 | 292 | 1.0 | 5.0 | 0.00 | 0.00 | 0.00 | 28 | 1012.0 |
| 20260507233033 | 77 | 234 | 2.0 | 8.0 | 0.00 | 0.00 | 0.00 | 29 | 1012.2 |
| 20260507231530 | 77 | 180 | 2.0 | 7.0 | 0.00 | 0.00 | 0.00 | 30 | 1012.3 |
| 20260507230029 | 77 | 185 | 3.0 | 7.0 | 0.00 | 0.00 | 0.00 | 31 | 1012.6 |
| 20260507224527 | 77 | 279 | 1.0 | 8.0 | 0.00 | 0.00 | 0.00 | 31 | 1012.6 |
| 20260507223024 | 77 | 182 | 2.0 | 9.0 | 0.00 | 0.00 | 0.00 | 33 | 1012.7 |
| 20260507221523 | 76 | 288 | 4.0 | 10.0 | 0.00 | 0.00 | 0.00 | 33 | 1012.8 |
| 20260507220021 | 76 | 188 | 1.0 | 8.0 | 0.00 | 0.00 | 0.00 | 32 | 1012.9 |
| 20260507214524 | 76 | 180 | 2.0 | 8.0 | 0.00 | 0.00 | 0.00 | 33 | 1013.0 |
| 20260507213018 | 75 | 210 | 1.0 | 7.0 | 0.00 | 0.00 | 0.00 | 35 | 1013.2 |
| 20260507211516 | 75 | 282 | 6.0 | 11.0 | 0.00 | 0.00 | 0.00 | 34 | 1013.4 |
| 20260507210013 | 75 | 263 | 4.0 | 11.0 | 0.00 | 0.00 | 0.00 | 34 | 1013.7 |
| 20260507204510 | 75 | 277 | 2.0 | 9.0 | 0.00 | 0.00 | 0.00 | 33 | 1014.1 |
| 20260507203011 | 74 | 159 | 4.0 | 11.0 | 0.00 | 0.00 | 0.00 | 36 | 1014.3 |
| 20260507201507 | 74 | 268 | 4.0 | 14.0 | 0.00 | 0.00 | 0.00 | 35 | 1014.7 |
| 20260507200003 | 73 | 292 | 5.0 | 23.0 | 0.00 | 0.00 | 0.00 | 36 | 1014.9 |
| 20260507194559 | 72 | 304 | 2.0 | 10.0 | 0.00 | 0.00 | 0.00 | 38 | 1015.2 |
| 20260507193058 | 71 | 222 | 6.0 | 11.0 | 0.00 | 0.00 | 0.00 | 39 | 1015.6 |
| 20260507191555 | 71 | 315 | 4.0 | 8.0 | 0.00 | 0.00 | 0.00 | 41 | 1015.8 |
| 20260507190053 | 70 | 285 | 3.0 | 8.0 | 0.00 | 0.00 | 0.00 | 40 | 1016.0 |
| 20260507184549 | 70 | 269 | 7.0 | 12.0 | 0.00 | 0.00 | 0.00 | 41 | 1016.4 |
| 20260507183047 | 69 | 306 | 3.0 | 10.0 | 0.00 | 0.00 | 0.00 | 42 | 1016.5 |
| 20260507181543 | 69 | 292 | 4.0 | 12.0 | 0.00 | 0.00 | 0.00 | 44 | 1016.8 |
| 20260507180041 | 68 | 246 | 3.0 | 11.0 | 0.00 | 0.00 | 0.00 | 44 | 1017.0 |
| 20260507174540 | 67 | 300 | 1.0 | 11.0 | 0.00 | 0.00 | 0.00 | 45 | 1017.3 |
| 20260507173043 | 68 | 157 | 3.0 | 10.0 | 0.00 | 0.00 | 0.00 | 49 | 1017.5 |
| 20260507171540 | 67 | 275 | 3.0 | 9.0 | 0.00 | 0.00 | 0.00 | 46 | 1017.8 |
| 20260507170031 | 66 | 163 | 3.0 | 13.0 | 0.00 | 0.00 | 0.00 | 48 | 1018.1 |
| 20260507164527 | 66 | 274 | 2.0 | 10.0 | 0.00 | 0.00 | 0.00 | 50 | 1018.3 |
| 20260507163025 | 65 | 243 | 4.0 | 11.0 | 0.00 | 0.00 | 0.00 | 51 | 1018.6 |
| 20260507161524 | 64 | 261 | 3.0 | 12.0 | 0.00 | 0.00 | 0.00 | 49 | 1018.7 |
| 20260507160025 | 64 | 263 | 2.0 | 7.0 | 0.00 | 0.00 | 0.00 | 49 | 1018.8 |
| 20260507154520 | 63 | 231 | 2.0 | 11.0 | 0.00 | 0.00 | 0.00 | 50 | 1019.0 |
| 20260507153016 | 62 | 227 | 4.0 | 9.0 | 0.00 | 0.00 | 0.00 | 51 | 1019.1 |